Change the Weather History Date:

Sunday, January 27, 2013

  Actual Average Record
Temperature  
Mean Temperature 63 °F 50 °F  
Max Temperature 80 °F 62 °F 84 °F (1975)
Min Temperature 46 °F 37 °F 21 °F (1963)
Degree Days  
Heating Degree Days 2 16  
Month to date heating degree days 410 432  
Since 1 July heating degree days 1021 1179  
Cooling Degree Days 0 0  
Month to date cooling degree days 2 0  
Year to date cooling degree days 2 0  
Growing Degree Days 18 (Base 50)    
Moisture  
Dew Point 60 °F    
Average Humidity 77    
Maximum Humidity 100    
Minimum Humidity 54    
Precipitation  
Precipitation T in 0.08 in 1.35 in (2005)
Month to date precipitation 2.69 1.99  
Year to date precipitation 2.69 1.99  
Snow  
Snow 0.00 in - - ()
Month to date snowfall T  
Since 1 July snowfall T  
Snow Depth 0.00 in    
Sea Level Pressure  
Sea Level Pressure 30.03 in    
Wind  
Wind Speed 12 mph (South)    
Max Wind Speed 23 mph    
Max Gust Speed 30 mph    
Visibility 8 miles    
Events Rain    
T = Trace of Precipitation, MM = Missing Value Source: NWS Daily Summary

Daily Weather History Graph

Daily Weather History Graph

Search for Another Location

Airport or City:

Trip Planner

Search our weather history database for the weather conditions in past years. The results will help you decide how hot, cold, wet, or windy it might be!

Date:

Astronomy

Jan. 27, 2013 Rise Set
Actual Time 7:23 AM CST 6:03 PM CST
Civil Twilight 6:58 AM CST 6:28 PM CST
Nautical Twilight 6:29 AM CST 6:57 PM CST
Astronomical Twilight 6:01 AM CST 7:26 PM CST
Moon 6:51 PM CST (1/27) 7:23 AM CST (1/27)
Length of Visible Light 11h 30m
Length of Day
10h 39m
Full, 100% of the Moon is Illuminated
Jan 27
Full
Feb 3
Last Quarter
Feb 10
New
Feb 17
First Quarter
Feb 25
Full

Hourly Weather History & Observations

Time (CST) Temp. Dew Point Humidity Pressure Visibility Wind Dir Wind Speed Gust Speed Precip Events Conditions
12:53 AM 46.0 °F 45.0 °F 96% 30.11 in 5.0 mi Calm Calm - N/A   Scattered Clouds
1:06 AM 48.2 °F 46.4 °F 93% 30.10 in 5.0 mi Calm Calm - N/A   Mostly Cloudy
1:53 AM 51.1 °F 50.0 °F 96% 30.09 in 5.0 mi Calm Calm - N/A   Mostly Cloudy
2:44 AM 53.6 °F 51.8 °F 94% 30.09 in 4.0 mi Calm Calm - N/A   Overcast
2:53 AM 54.0 °F 53.1 °F 97% 30.09 in 4.0 mi South 3.5 mph - N/A   Overcast
3:53 AM 61.0 °F 59.0 °F 93% 30.07 in 6.0 mi South 8.1 mph - N/A   Overcast
4:53 AM 61.0 °F 59.0 °F 93% 30.06 in 9.0 mi South 9.2 mph - N/A   Overcast
5:53 AM 59.0 °F 57.9 °F 96% 30.06 in 7.0 mi South 6.9 mph - N/A   Mostly Cloudy
6:38 AM 60.8 °F 59.0 °F 94% 30.07 in 3.0 mi SSE 6.9 mph - N/A   Overcast
6:53 AM 60.1 °F 60.1 °F 100% 30.06 in 0.5 mi South 6.9 mph - N/A   Mist
7:46 AM 62.6 °F 60.8 °F 94% 30.08 in 1.2 mi SSE 6.9 mph - N/A   Overcast
7:53 AM 62.1 °F 61.0 °F 96% 30.06 in 1.2 mi SSE 8.1 mph - N/A   Overcast
8:15 AM 62.6 °F 62.6 °F 100% 30.07 in 2.0 mi SSE 10.4 mph - N/A   Overcast
8:53 AM 64.9 °F 63.0 °F 93% 30.07 in 8.0 mi SSE 11.5 mph - N/A   Overcast
9:53 AM 68.0 °F 63.0 °F 84% 30.08 in 10.0 mi South 16.1 mph - N/A   Overcast
10:53 AM 69.1 °F 63.0 °F 81% 30.08 in 10.0 mi South 18.4 mph 24.2 mph N/A   Overcast
11:02 AM 69.8 °F 62.6 °F 78% 30.08 in 10.0 mi South 16.1 mph 26.5 mph N/A   Overcast
11:53 AM 73.0 °F 63.0 °F 71% 30.05 in 10.0 mi South 16.1 mph 23.0 mph N/A   Overcast
12:53 PM 75.0 °F 62.1 °F 64% 30.01 in 10.0 mi South 16.1 mph 26.5 mph N/A   Mostly Cloudy
1:53 PM 78.1 °F 61.0 °F 56% 29.97 in 10.0 mi South 19.6 mph 25.3 mph N/A   Mostly Cloudy
2:53 PM 79.0 °F 62.1 °F 56% 29.95 in 10.0 mi South 20.7 mph 25.3 mph N/A   Mostly Cloudy
3:53 PM 78.1 °F 62.1 °F 58% 29.94 in 10.0 mi South 15.0 mph 24.2 mph N/A   Mostly Cloudy
4:53 PM 77.0 °F 63.0 °F 62% 29.94 in 10.0 mi SSE 17.3 mph 25.3 mph N/A   Mostly Cloudy
5:53 PM 73.9 °F 63.0 °F 68% 29.96 in 10.0 mi South 13.8 mph 23.0 mph N/A   Scattered Clouds
6:53 PM 72.0 °F 63.0 °F 73% 29.97 in 10.0 mi South 13.8 mph - N/A   Mostly Cloudy
7:43 PM 71.6 °F 62.6 °F 73% 30.00 in 10.0 mi South 9.2 mph - N/A   Mostly Cloudy
7:53 PM 71.1 °F 64.0 °F 78% 29.98 in 10.0 mi SSE 10.4 mph 19.6 mph N/A   Mostly Cloudy
8:53 PM 71.1 °F 64.0 °F 78% 29.98 in 10.0 mi SSE 13.8 mph - N/A   Overcast
9:53 PM 70.0 °F 64.9 °F 84% 29.98 in 10.0 mi South 15.0 mph 21.9 mph N/A   Overcast
10:53 PM 69.1 °F 64.9 °F 87% 30.00 in 10.0 mi SSE 13.8 mph - 0.00 in   Overcast
11:53 PM 69.1 °F 64.9 °F 87% 30.01 in 10.0 mi South 15.0 mph - N/A   Overcast